INMARSAT 3-F5
1 25153U 98006B   02365.01026622  .00000147  00000-0  10000-3 0  8269
2 25153   0.4520 357.5009 0003812 306.4439 183.9650  1.00269000 18000
HOT BIRD 4
1 25237U 98013A   02364.09542247  .00000095  00000-0  10000-3 0  3237
2 25237   0.0611 171.7992 0008910  46.8775 287.0610  1.00272623 18039
NOAA 15
1 25338U 98030A   03004.00402353  .00000216  00000-0  11215-3 0  9571
2 25338  98.5515  27.3875 0011444  89.2203 271.0287 14.24222547241317
RESURS O1-N4
1 25394U 98043A   03003.88948483  .00000174  00000-0  94827-4 0  4154
2 25394  98.6379  82.6457 0000760 214.0243 146.0882 14.23859819233038
TMSAT
1 25396U 98043C   03001.95020273 -.00000043 +00000-0 +00000-0 0 08987
2 25396 098.6334 079.9688 0001674 267.6697 092.4292 14.23494565232758
TECHSAT 1B
1 25397U 98043D   03001.95357640 +.00000132 +00000-0 +77942-4 0 01354
2 25397 098.6290 078.9174 0000425 319.6936 040.4210 14.22947896232725
ASTRA 2A
1 25462U 98050A   02364.00000000  .00000158  00000-0  00000+0 0  5276
2 25462   0.0385 308.7109 0004824 280.8620 256.9180  1.00272094 15933
EUTELSAT W2
1 25491U 98056A   03002.85067688  .00000104  00000-0  00000+0 0  5554
2 25491   0.0332 118.6886 0002377 157.3852 148.2321  1.00273123 15588
HOT BIRD 5
1 25495U 98057A   03001.91737848  .00000158  00000-0  00000+0 0  4870
2 25495   0.0465 155.6053 0003909 128.2106 180.6460  1.00270419 15542
SEDSAT 1
1 25509U 98061B   03004.19063808  .00001206  00000-0  22875-3 0  7496
2 25509  31.4335  49.4211 0358198 266.5979  89.3632 14.27339631218822
PAN SAT
1 25520U 98064B   03003.54051030  .00002197  00000-0  10884-3 0  6254
2 25520  28.4660 170.3972 0005738 219.2235 140.7929 15.13624490230606
ISS (ZARYA)
1 25544U 98067A   03004.14312203  .00020325  00000-0  26707-3 0  5446
2 25544  51.6359 124.2566 0004771 356.9118  63.1985 15.58471417235453
ORSTED
1 25635U 99008B   03003.54247735  .00000588  00000-0  15602-3 0  7974
2 25635  96.4467   0.8083 0146358 114.7209 246.9302 14.44755178203297
SUNSAT
1 25636U 99008C   03001.93845697 +.00000330 +00000-0 +93854-4 0 06731
2 25636 096.4494 358.3444 0150260 125.8313 235.6950 14.42910459202944
UOSAT 12
1 25693U 99021A   03003.89492200  .00000233  00000-0  53222-4 0  5819
2 25693  64.5579 150.5747 0016370 316.5936  43.3876 14.76329137199511
FENGYUN 1C
1 25730U 99025A   03004.22243097  .00000033  00000-0  41239-4 0  7344
2 25730  98.6370  30.3214 0015203 130.0084 230.2425 14.11728863188233
ASTRA 1H
1 25785U 99033A   02364.00000000  .00000128  00000-0  10000-3 0  3670
2 25785   0.0122 319.8851 0002995  65.1991  92.3410  1.00273184 12991
TERRA
1 25994U 99068A   03004.12816373  .00000283  00000-0  72881-4 0  5651
2 25994  98.2074  81.0365 0000611  94.9832 265.1451 14.57155436162056
JAWSAT
1 26061U 00004A   03004.20730810  .00000607  00000-0  21958-3 0  7323
2 26061 100.2121  52.8443 0035435  48.5553 311.8661 14.37767496154011
OPAL
1 26063U 00004C   03003.69182356  .00000148  00000-0  71594-4 0  6896
2 26063 100.2187  49.9327 0037417  55.7944 304.6771 14.35460400153800
ASUSAT
1 26065U 00004E   03004.20715448  .00000183  00000-0  83546-4 0  7003
2 26065 100.2176  50.6813 0037797  56.2015 304.2751 14.35486536153874
GOES 11
1 26352U 00022A   03003.47422521 -.00000043  00000-0  10000-3 0  9571
2 26352   0.0416 142.7888 0004552 129.4138 249.2503  1.00260078  9775
EUTELSAT W4
1 26369U 00028A   02365.18880209  .00000161  00000-0  00000+0 0  3348
2 26369   0.0264   6.8932 0003444 271.2514 285.3827  1.00274671  9557
FENGYUN 2B
1 26382U 00032A   03001.90659179 -.00000327 +00000-0 +00000-0 0 07616
2 26382 000.6868 286.6482 0000426 204.2313 041.2136 01.00272208009237
EUTELSAT W1
1 26487U 00052A   02365.14877895  .00000074  00000-0  10000-3 0  3347
2 26487   0.0277 118.3689 0003899 159.0833 245.4310  1.00270091  8523
ASTRA 2B
1 26494U 00054A   02364.00000000  .00000158  00000-0  00000+0 0  2502
2 26494   0.0178 354.5658 0005000 302.8402 189.0339  1.00276704  8416
NOAA 16
1 26536U 00055A   03003.80221733 -.00000019  00000-0  13596-4 0  1490
2 26536  98.8968 312.4392 0011418  76.4636 283.7804 14.11874567117693
SAUDISAT 1A
1 26545U 00057A   03004.03698099  .00000962  00000-0  14666-3 0  3936
2 26545  64.5560 171.8493 0054920 245.8586 113.6798 14.78830332122482
UNISAT
1 26547U 00057C   03001.81501062 +.00001811 +00000-0 +25317-3 0 04158
2 26547 064.5560 181.0874 0062074 248.7262 110.7138 14.79493574122123
TIUNGSAT 1
1 26548U 00057D   03002.57630352  .00001319  00000-0  18490-3 0  3963
2 26548  64.5556 169.7454 0048343 244.6358 114.9705 14.81074539122406
SAUDISAT 1B
1 26549U 00057E   03003.90506276  .00000915  00000-0  14337-3 0  6576
2 26549  64.5529 176.1363 0059226 246.3454 113.1415 14.77774082122398
AMSAT OSCAR 40
1 26609U 00072B   03002.48921818 -.00000075  00000-0  10000-3 0  3001
2 26609   7.8950  72.8649 7933508 128.8606 331.3315  1.25596303  9996
GOES 12
1 26871U 01031A   03003.46923635 -.00000088  00000-0  10000-3 0  7532
2 26871   0.4386  98.1521 0000875  39.5718  28.7262  1.00261187  5374
STARSHINE 3
1 26929U 01043A   03004.20620740  .00370731  63598-4  73440-3 0  6370
2 26929  67.0268 115.8892 0006101 317.7705  42.3066 15.99709271 71606
PCSAT
1 26931U 01043C   03004.24500366  .00000166  00000-0  97977-4 0  3688
2 26931  67.0494  12.2950 0005404 255.8167 104.2333 14.29086273 65873
SAPPHIRE
1 26932U 01043D   03003.24915670  .00000146  00000-0  89877-4 0  3628
2 26932  67.0566  14.5755 0006725 238.8091 121.2350 14.29273717 65752
ENVISAT
1 27386U 02009A   03004.13590255  .00000197  00000-0  89299-4 0  8126
2 27386  98.5501  73.3401 0000975  94.9161 265.2148 14.32249444 44244
IDEFIX/ARIANE 42P
1 27422U 02021B   03004.19707155  .00000202  00000-0  99384-4 0  2000
2 27422  98.7004  83.5929 0011686 282.4562  77.5311 14.27941883 34989
NOAA 17
1 27453U 02032A   03004.01125906  .00000313  00000-0  15759-3 0  2562
2 27453  98.7637  75.4462 0012417 126.1368 234.0961 14.23263538 27486
HOT BIRD 6
1 27499U 02038A   02364.09542247  .00000095  00000-0  10000-3 0   643
2 27499   0.0040   8.7196 0011180 225.2390 271.8102  1.00272778  1323
RUBIN 2
1 27605U 02058A   03003.90595621  .00000687  00000-0  13144-3 0   200
2 27605  64.5580 335.8970 0031709 130.6704 229.7136 14.71354067  2095
